GW2922 Weather Reports


time (UTC)temp
C
wind
direction
speed
KPH
gust
KPH
rain 1hr
cm
rain 24hr
cm
rain mn
cm
humidity
%
barometer
mb
20260502202706 21 69 1.6 4.8 0.00 0.00 0.00 55 1018.5
20260502202205 20 10 6.4 9.7 0.00 0.00 0.00 54 1018.9
20260502201702 20 20 6.4 9.7 0.00 0.00 0.00 55 1018.9
20260502201158 19 36 4.8 14.5 0.00 0.00 0.00 55 1018.9
20260502200654 19 292 4.8 9.7 0.00 0.00 0.00 55 1019.2
20260502200150 19 51 4.8 14.5 0.00 0.00 0.00 55 1019.2
20260502195649 19 55 3.2 12.9 0.00 0.00 0.00 57 1018.9
20260502195145 19 35 3.2 9.7 0.00 0.00 0.00 57 1019.2
20260502194642 20 90 1.6 4.8 0.00 0.00 0.00 57 1019.2
20260502194138 20 6 4.8 4.8 0.00 0.00 0.00 57 1018.9
20260502193635 19 97 1.6 6.4 0.00 0.00 0.00 58 1019.2
20260502193132 18 318 9.7 12.9 0.00 0.00 0.00 58 1019.2
20260502192627 18 15 4.8 12.9 0.00 0.00 0.00 58 1019.2
20260502192125 19 348 4.8 6.4 0.00 0.00 0.00 58 1019.2
20260502191622 18 148 0.0 4.8 0.00 0.00 0.00 58 1019.2
20260502191119 18 42 3.2 6.4 0.00 0.00 0.00 57 1019.6
20260502190617 18 78 4.8 14.5 0.00 0.00 0.00 60 1019.2
20260502190114 17 24 4.8 11.3 0.00 0.00 0.00 61 1019.6
20260502185609 17 350 3.2 9.7 0.00 0.00 0.00 61 1019.6
20260502185106 17 1 9.7 11.3 0.00 0.00 0.00 61 1019.6
20260502184602 17 84 9.7 12.9 0.00 0.00 0.00 61 1019.6
20260502184057 17 59 4.8 6.4 0.00 0.00 0.00 62 1019.6
20260502183554 17 108 1.6 4.8 0.00 0.00 0.00 62 1019.6
20260502183050 18 69 1.6 9.7 0.00 0.00 0.00 63 1019.6
20260502182546 18 63 1.6 9.7 0.00 0.00 0.00 63 1019.6
20260502182042 17 141 1.6 12.9 0.00 0.00 0.00 64 1019.6
20260502181540 18 107 0.0 4.8 0.00 0.00 0.00 64 1019.6
20260502181038 17 341 4.8 6.4 0.00 0.00 0.00 64 1019.6
20260502180535 17 11 3.2 9.7 0.00 0.00 0.00 67 1019.6
20260502170454 15 311 1.6 11.3 0.00 0.00 0.00 72 1019.9
20260502163937 13 305 3.2 6.4 0.00 0.00 0.00 75 1019.9
20260502163433 13 52 1.6 4.8 0.00 0.00 0.00 76 1019.6
20260502162931 13 306 3.2 4.8 0.00 0.00 0.00 76 1019.9
20260502162428 13 316 1.6 4.8 0.00 0.00 0.00 77 1019.9
20260502161925 13 224 4.8 9.7 0.00 0.00 0.00 77 1019.6
20260502161421 13 46 4.8 6.4 0.00 0.00 0.00 77 1019.6
20260502160919 12 3 3.2 9.7 0.00 0.00 0.00 78 1019.6
20260502160417 12 21 6.4 9.7 0.00 0.00 0.00 78 1019.6
20260502151855 10 324 3.2 4.8 0.00 0.00 0.00 94 1019.6
20260502151351 10 28 1.6 1.6 0.00 0.00 0.00 94 1019.6
20260502150849 10 82 0.0 1.6 0.00 0.00 0.00 94 1019.6
20260502150345 10 82 1.6 3.2 0.00 0.00 0.00 95 1019.6
20260502130734 8 92 0.0 1.6 0.00 0.00 0.00 95 1019.6
20260502130231 8 127 0.0 0.0 0.00 0.00 0.00 95 1019.2
20260502123717 8 117 1.6 1.6 0.00 0.00 0.00 94 1019.2
20260502123214 8 134 0.0 0.0 0.00 0.00 0.00 94 1019.2
20260502122710 7 134 0.0 0.0 0.00 0.00 0.00 94 1019.2
20260502122207 8 134 0.0 0.0 0.00 0.00 0.00 94 1019.2
20260502121705 8 134 0.0 0.0 0.00 0.00 0.00 94 1019.2
20260502121203 8 122 0.0 0.0 0.00 0.00 0.00 94 1019.2
20260502120659 8 125 0.0 1.6 0.00 0.00 0.00 94 1019.2
20260502120156 7 166 0.0 1.6 0.00 0.00 0.00 94 1019.2
20260502115654 7 166 1.6 1.6 0.00 0.00 0.00 94 1019.2
20260502115149 7 139 0.0 0.0 0.00 0.00 0.00 93 1019.2
20260502114646 7 140 0.0 1.6 0.00 0.00 0.00 93 1019.2
20260502114143 8 134 0.0 0.0 0.00 0.00 0.00 93 1018.9
20260502113640 8 134 1.6 1.6 0.00 0.00 0.00 93 1018.5
20260502113139 8 134 0.0 1.6 0.00 0.00 0.00 93 1018.9
20260502112636 8 134 0.0 0.0 0.00 0.00 0.00 93 1018.9
20260502112133 8 134 0.0 0.0 0.00 0.00 0.00 93 1018.5
20260502111631 8 134 0.0 0.0 0.00 0.00 0.00 93 1018.9
20260502111128 8 134 0.0 0.0 0.00 0.00 0.00 93 1018.9
20260502110626 8 134 0.0 1.6 0.00 0.00 0.00 93 1018.9
20260502110123 8 135 0.0 0.0 0.00 0.00 0.00 93 1018.9
20260502105620 8 135 0.0 1.6 0.00 0.00 0.00 93 1018.9
20260502105117 8 130 0.0 0.0 0.00 0.00 0.00 92 1018.9
20260502104614 8 128 0.0 3.2 0.00 0.00 0.00 93 1018.9
20260502104112 8 118 0.0 0.0 0.00 0.00 0.00 92 1018.9
20260502103609 8 139 1.6 1.6 0.00 0.00 0.00 92 1018.9
20260502103108 8 77 0.0 0.0 0.00 0.00 0.00 92 1018.9
20260502102604 8 77 0.0 0.0 0.00 0.00 0.00 92 1019.2
20260502102101 8 77 0.0 0.0 0.00 0.00 0.00 92 1019.2
20260502101559 8 77 0.0 0.0 0.00 0.00 0.00 92 1019.2
20260502101057 8 77 0.0 0.0 0.00 0.00 0.00 92 1018.9
20260502100555 8 77 0.0 1.6 0.00 0.00 0.00 91 1018.9
20260502091529 8 198 0.0 1.6 0.00 0.00 0.00 91 1018.9
20260502091027 8 198 0.0 4.8 0.00 0.00 0.00 90 1018.9
20260502090524 9 140 0.0 1.6 0.00 0.00 0.00 90 1018.9
20260502071418 10 252 3.2 3.2 0.00 0.00 0.00 86 1018.5
20260502070916 10 95 1.6 6.4 0.00 0.00 0.00 86 1018.5
20260502070414 10 80 1.6 3.2 0.00 0.00 0.00 86 1018.5
20260502065912 10 0 1.6 4.8 0.00 0.00 0.00 85 1018.5
20260502065410 10 32 1.6 4.8 0.00 0.00 0.00 85 1018.9
20260502064908 10 86 1.6 3.2 0.00 0.00 0.00 85 1018.9
20260502064406 10 64 3.2 9.7 0.00 0.00 0.00 85 1018.5
20260502063903 10 117 1.6 11.3 0.00 0.00 0.00 84 1018.5
20260502063400 10 5 4.8 11.3 0.00 0.00 0.00 84 1018.5
20260502062858 10 30 3.2 6.4 0.00 0.00 0.00 84 1018.5
20260502062355 11 58 1.6 3.2 0.00 0.00 0.00 83 1018.5
20260502061854 11 111 1.6 4.8 0.00 0.00 0.00 83 1018.5
20260502061351 11 87 0.0 4.8 0.00 0.00 0.00 82 1018.5
20260502060847 11 67 0.0 6.4 0.00 0.00 0.00 83 1018.5
20260502060342 11 215 1.6 3.2 0.00 0.00 0.00 82 1018.5
20260502055840 11 216 6.4 9.7 0.00 0.00 0.00 82 1018.5
20260502055338 11 62 1.6 4.8 0.00 0.00 0.00 82 1018.2
20260502054837 11 124 3.2 4.8 0.00 0.00 0.00 82 1018.5
20260502054334 11 1 3.2 12.9 0.00 0.00 0.00 81 1018.5
20260502053831 11 59 1.6 9.7 0.00 0.00 0.00 81 1018.5
20260502053328 11 57 3.2 9.7 0.00 0.00 0.00 81 1018.5
20260502052826 11 341 4.8 9.7 0.00 0.00 0.00 81 1018.2
20260502052324 11 6 3.2 6.4 0.00 0.00 0.00 80 1018.5
20260502051821 11 102 1.6 16.1 0.00 0.00 0.00 80 1018.5
20260502051320 11 88 3.2 14.5 0.00 0.00 0.00 80 1018.5
20260502050816 11 32 3.2 9.7 0.00 0.00 0.00 79 1018.5
20260502050313 11 6 8.0 11.3 0.00 0.00 0.00 78 1018.5
20260502045810 11 65 3.2 6.4 0.00 0.00 0.00 79 1018.5
20260502045306 11 343 3.2 16.1 0.00 0.00 0.00 80 1018.5
20260502044804 11 9 1.6 6.4 0.00 0.00 0.00 79 1018.2
20260502044259 12 357 3.2 11.3 0.00 0.00 0.00 79 1018.2
20260502043757 12 114 3.2 11.3 0.00 0.00 0.00 78 1018.2
20260502043254 12 65 3.2 9.7 0.00 0.00 0.00 78 1017.9
20260502042753 12 91 3.2 11.3 0.00 0.00 0.00 77 1018.2
20260502042251 12 104 4.8 11.3 0.00 0.00 0.00 77 1018.2
20260502041749 12 105 1.6 11.3 0.00 0.00 0.00 77 1018.2
20260502041246 12 306 4.8 11.3 0.00 0.00 0.00 77 1018.2
20260502040743 12 104 1.6 9.7 0.00 0.00 0.00 77 1018.2
20260502040239 12 103 1.6 6.4 0.00 0.00 0.00 77 1018.2
20260502035735 12 344 3.2 9.7 0.00 0.00 0.00 77 1018.2
20260502035232 12 312 3.2 11.3 0.00 0.00 0.00 76 1018.2
20260502034730 12 1 9.7 14.5 0.00 0.00 0.00 75 1017.9
20260502034228 13 18 6.4 16.1 0.00 0.00 0.00 73 1017.9
20260502033726 13 228 3.2 11.3 0.00 0.00 0.00 73 1017.9
20260502033223 13 339 4.8 11.3 0.00 0.00 0.00 72 1017.9
20260502032720 13 12 3.2 9.7 0.00 0.00 0.00 73 1017.9
20260502032216 13 187 1.6 12.9 0.00 0.00 0.00 72 1017.9
20260502031714 13 281 3.2 16.1 0.00 0.00 0.00 72 1017.9
20260502031212 13 20 3.2 14.5 0.00 0.00 0.00 72 1017.9
20260502030710 13 350 4.8 12.9 0.00 0.00 0.00 71 1017.9
20260502030208 13 109 1.6 12.9 0.00 0.00 0.00 72 1017.5
20260502025705 13 338 4.8 14.5 0.00 0.00 0.00 73 1017.5
20260502025203 13 344 3.2 9.7 0.00 0.00 0.00 73 1017.5
20260502024700 13 120 1.6 9.7 0.00 0.00 0.00 73 1017.5
20260502024158 13 70 4.8 11.3 0.00 0.00 0.00 73 1017.5
20260502023656 13 32 8.0 14.5 0.00 0.00 0.00 74 1017.5
20260502023153 13 346 3.2 4.8 0.00 0.00 0.00 75 1017.5
20260502022650 13 339 3.2 4.8 0.00 0.00 0.00 75 1017.5
20260502022147 13 308 3.2 6.4 0.00 0.00 0.00 75 1017.5
20260502021644 13 10 3.2 6.4 0.00 0.00 0.00 75 1017.2
20260502021141 13 94 3.2 9.7 0.00 0.00 0.00 74 1017.2
20260502020638 13 329 8.0 12.9 0.00 0.00 0.00 74 1017.5
20260502020135 13 332 1.6 6.4 0.00 0.00 0.00 73 1017.5
20260502015633 13 74 4.8 12.9 0.00 0.00 0.00 74 1017.5
20260502015129 13 257 3.2 4.8 0.00 0.00 0.00 74 1017.5
20260502014627 13 345 3.2 9.7 0.00 0.00 0.00 74 1017.5
20260502014124 13 353 6.4 16.1 0.00 0.00 0.00 73 1017.5
20260502013620 14 307 6.4 11.3 0.00 0.00 0.00 73 1017.5
20260502013115 14 190 1.6 6.4 0.00 0.00 0.00 74 1017.5
20260502012613 13 229 3.2 6.4 0.00 0.00 0.00 74 1017.9
20260502012111 13 105 1.6 11.3 0.00 0.00 0.00 74 1017.9
20260502011607 13 290 3.2 6.4 0.00 0.00 0.00 74 1017.9
20260502011103 14 354 8.0 12.9 0.00 0.00 0.00 74 1017.5
20260502010601 14 101 1.6 3.2 0.00 0.00 0.00 75 1017.5
20260502010057 14 89 3.2 6.4 0.00 0.00 0.00 75 1017.9
20260502005555 15 343 1.6 12.9 0.00 0.00 0.00 75 1017.5
20260502005052 15 357 8.0 12.9 0.00 0.00 0.00 74 1017.5
20260502004548 14 339 6.4 9.7 0.00 0.00 0.00 75 1017.9
20260502004045 14 324 3.2 9.7 0.00 0.00 0.00 74 1017.9
20260502003543 15 261 4.8 14.5 0.00 0.00 0.00 73 1017.9
20260502003039 15 16 4.8 14.5 0.00 0.00 0.00 72 1017.9
20260502002536 15 323 3.2 9.7 0.00 0.00 0.00 72 1017.9
20260502002033 15 80 1.6 16.1 0.00 0.00 0.00 72 1017.9
20260502001531 15 39 4.8 12.9 0.00 0.00 0.00 72 1017.9
20260502001028 15 13 6.4 11.3 0.00 0.00 0.00 70 1017.9
20260502000526 16 9 6.4 9.7 0.00 0.00 0.00 67 1017.9
20260502000023 16 25 1.6 4.8 0.00 0.00 0.00 68 1017.9
20260501235519 16 317 3.2 4.8 0.00 0.00 0.00 68 1017.9
20260501235014 15 266 3.2 16.1 0.00 0.00 0.00 71 1017.9
20260501234510 15 323 6.4 16.1 0.00 0.00 0.00 71 1017.9
20260501234009 15 343 3.2 9.7 0.00 0.00 0.00 72 1017.9
20260501233507 15 330 9.7 11.3 0.00 0.00 0.00 69 1017.9
20260501233002 16 27 3.2 12.9 0.00 0.00 0.00 68 1017.9
20260501232459 16 334 1.6 6.4 0.00 0.00 0.00 67 1017.9
20260501231956 16 133 1.6 14.5 0.00 0.00 0.00 66 1017.9
20260501231455 16 77 1.6 11.3 0.00 0.00 0.00 67 1018.2
20260501230952 17 62 3.2 4.8 0.00 0.00 0.00 64 1018.2
20260501230451 17 62 1.6 11.3 0.00 0.00 0.00 65 1018.2
20260501225948 16 245 6.4 6.4 0.00 0.00 0.00 65 1018.2
20260501225446 16 129 1.6 11.3 0.00 0.00 0.00 66 1018.5
20260501224941 16 338 3.2 14.5 0.00 0.00 0.00 67 1018.2
20260501224439 16 49 1.6 11.3 0.00 0.00 0.00 66 1018.5
20260501223936 16 338 6.4 11.3 0.00 0.00 0.00 67 1018.5
20260501223432 15 335 9.7 11.3 0.00 0.00 0.00 67 1018.5
20260501222928 16 149 3.2 9.7 0.00 0.00 0.00 66 1018.5
20260501222425 16 1 3.2 9.7 0.00 0.00 0.00 66 1018.5
20260501221921 15 288 6.4 11.3 0.00 0.00 0.00 66 1018.5
20260501221419 15 0 6.4 9.7 0.00 0.00 0.00 67 1018.9
20260501220917 16 113 1.6 9.7 0.00 0.00 0.00 65 1018.5
20260501220414 16 58 1.6 16.1 0.00 0.00 0.00 63 1018.9
20260501215910 17 37 3.2 9.7 0.00 0.00 0.00 61 1018.9
20260501215407 16 114 1.6 6.4 0.00 0.00 0.00 62 1018.5
20260501214902 17 86 4.8 14.5 0.00 0.00 0.00 59 1018.9
20260501214357 16 57 6.4 12.9 0.00 0.00 0.00 62 1018.9
20260501213853 16 79 1.6 16.1 0.00 0.00 0.00 64 1018.9
20260501213350 16 124 0.0 3.2 0.00 0.00 0.00 64 1018.9
20260501212840 15 16 3.2 6.4 0.00 0.00 0.00 67 1018.9
20260501212337 17 304 6.4 14.5 0.00 0.00 0.00 65 1018.9
20260501211834 16 91 3.2 9.7 0.00 0.00 0.00 67 1018.9
20260501211332 15 90 4.8 12.9 0.00 0.00 0.00 70 1018.9
20260501210829 16 311 9.7 14.5 0.00 0.00 0.00 66 1018.9
20260501210326 16 104 0.0 14.5 0.00 0.00 0.00 70 1018.5
20260501205822 16 287 6.4 16.1 0.00 0.00 0.00 69 1018.9
20260501205319 16 80 4.8 9.7 0.00 0.00 0.00 69 1018.9
20260501204816 15 51 8.0 14.5 0.00 0.00 0.00 70 1018.5
20260501204312 15 251 6.4 9.7 0.00 0.00 0.00 72 1018.9
20260501203808 17 315 9.7 14.5 0.00 0.00 0.00 67 1018.9
20260501203306 16 83 1.6 6.4 0.00 0.00 0.00 71 1018.9